Flag for Brazil Weather past 2 weeks in Fortaleza, Ceará, Brazil

Now
79 °F

Passing clouds.


Feels Like: 82 °F
Forecast: 75 / 85 °F
Wind: 10 mph from Southeast

Location: Fortaleza Aeropor-To

Current Time: Jul 5, 2015 at 10:50:12 PM

Latest Report: Jul 5, 2015 at 10:00 PM


Visibility: N/A

Pressure: 29.92 "Hg

Humidity: 79%

Dew point: 72 °F

Location of FortalezaLocation

Historic Weather in Fortaleza — Graph

°F

Fortaleza temperature yesterday

Maximum temperature yesterday: 82 °F (at 11:00 AM)
Minimum temperature yesterday: 77 °F (at 2:00 AM)
Average temperature yesterday: 79 °F

Past Weeks' High & Low Weather Summary

 TemperatureHumidityPressure
High88 °F (Jun 27, 12:00 PM)94% (Jul 5, 2:00 AM)30.12 "Hg (Jul 5, 2:00 AM)
Low72 °F (Jun 25, 8:00 AM)40% (Jun 27, 12:00 PM)29.86 "Hg (Jul 4, 3:00 PM)
Average79 °F73%29.98 "Hg
* Reported Jun 20 10:00 PM — Jul 5 10:00 PM, Fortaleza, Weather by CustomWeather, © 2015

Note: Actual official high and low records may vary slightly from our data, if they occured in-between our weather recording intervals... More about our weather records

Advertising

Fortaleza weather history for previous 24 hours

 ConditionsComfort  
Time TempWeatherWind HumidityBarometerVisibility
10:00 PM
Sun, Jul 5
79 °FPassing clouds.10 mph79%29.92 "HgN/A
9:00 PM77 °FPassing clouds.8 mph83%29.89 "HgN/A
8:00 PM77 °FPassing clouds.7 mph83%29.89 "HgN/A
7:00 PM79 °FClear.8 mph79%29.89 "Hg10 mi
6:00 PM79 °FClear.8 mph79%29.86 "Hg10 mi
5:00 PM79 °FSunny.6 mph79%29.86 "Hg10 mi
4:00 PM81 °FSunny.8 mph74%29.86 "Hg10 mi
3:00 PM81 °FPartly sunny.10 mph74%29.86 "HgN/A
2:00 PM79 °FPartly sunny.9 mph79%29.89 "HgN/A
1:00 PM77 °FPartly sunny.7 mph83%29.92 "HgN/A
12:00 PM75 °FLight rain. Low clouds.12 mph89%29.95 "Hg4 mi
11:00 AM73 °FLight rain. Cloudy.7 mph94%29.98 "Hg2 mi
10:00 AM73 °FRain. Cloudy.8 mph94%29.98 "Hg2 mi
9:00 AM73 °FRain. Mostly cloudy.9 mph94%29.98 "Hg2 mi
8:00 AM73 °FLight rain. Broken clouds.7 mph94%29.95 "Hg2 mi
7:00 AM73 °FRain. Broken clouds.12 mph94%29.95 "Hg2 mi
6:00 AM73 °FLight rain. Partly sunny.13 mph94%29.92 "Hg4 mi
5:00 AM75 °FPassing clouds.7 mph94%29.89 "HgN/A
4:00 AM75 °FLight rain. Passing clouds.6 mph94%29.89 "Hg4 mi
3:00 AM75 °FPartly cloudy.3 mph94%29.89 "HgN/A
2:00 AM75 °FRain. Passing clouds.5 mph94%29.89 "Hg2 mi
1:00 AM77 °FPassing clouds.5 mph89%29.92 "HgN/A
12:00 AM77 °FLight rain. Passing clouds.2 mph83%29.92 "Hg5 mi
11:00 PM
Sat, Jul 4
77 °FPassing clouds.3 mph83%29.95 "HgN/A
10:00 PM77 °FPartly cloudy.5 mph83%29.92 "HgN/A
Weather by CustomWeather, © 2015

See weather overviewHow to use our weather pages